79P/du Toit-Hartley (2008)

Japanese version
Home page
Total 5,708 html files since Dec. 4, 1995
Updated on May 6, 2008

---------------------------------------------------------------------

* Profile

* Pictures

* Orbital Elements

The following orbital elements are taken from MPC 54169:

Epoch 2008 May 14.0 TT = JDT 2454600.5
T 2008 May 28.4487 TT                                   MPC
q   1.230478             (2000.0)            P               Q
n   0.1867951      Peri.  253.2769      -0.9318848      +0.3605578
a   3.030812       Node   307.8397      -0.3106253      -0.8498887
e   0.594010       Incl.    2.8930      -0.1873568      -0.3843010
P   5.28
From 52 observations 1982-2003, mean residual 0".9.  Nongravitational
     parameters A1 = +0.30, A2 = +0.0113.

* Finding Charts

* Magnitudes Graph

        m1 = 15.5 + 5 log d + 10.0 log r(t + 20)

---------------------------------------------------------------------

The orbital elements are published at the MPC Ephemerides and Orbital Elements.
The charts are made with StellaNavigator Ver.8 (AstroArts).
The magnitudes graphs are made with Comet for Windows.

---------------------------------------------------------------------

Copyright(C) 1995-2007 Seiichi Yoshida (comet@aerith.net). All rights reserved.